Home   Weather   Lincoln   Past weeks

Flag for USA Past Weather in Lincoln, Nebraska, USA — Yesterday and Last 2 Weeks

Now
22 °F

Overcast.


Feels Like: 12 °F
Forecast: 6 / 27 °F
Wind: 8 mph from Southeast

Location: Lincoln Municipal Airport

Current Time: Dec 9, 2016 at 5:22:53 pm

Latest Report: Dec 9, 2016 at 4:54 pm


Visibility: 10 mi

Pressure: 30.55 "Hg

Humidity: 66%

Dew Point: 12 °F

Location of LincolnLocation

Past Weather in Lincoln — Graph

°F

Lincoln Temperature Yesterday

Maximum temperature yesterday: 27 °F (at 2:54 pm)
Minimum temperature yesterday: 8 °F (at 9:54 pm)
Average temperature yesterday: 16 °F

High & Low Weather Summary for the Past Weeks

 TemperatureHumidityPressure
High60 °F (Nov 26, 2:54 pm)100% (Dec 3, 10:54 pm)30.73 "Hg (Dec 3, 10:54 pm)
Low4 °F (Dec 9, 3:54 am)31% (Dec 6, 1:54 pm)29.13 "Hg (Nov 28, 2:54 pm)
Average33 °F71%30.05 "Hg
* Reported Nov 24 3:54 pm — Dec 9 3:54 pm, Lincoln, Weather by CustomWeather, © 2016

Note: Actual official high and low records may vary slightly from our data, if they occured in-between our weather recording intervals... More about our weather records

Advertising

Lincoln Weather History for the Previous 24 Hours

Scroll right to see more
 ConditionsComfort  
Time TempWeatherWind HumidityBarometerVisibility
3:54 pm
Fri, Dec 9
22 °FOvercast.8 mph66%30.57 "Hg10 mi
2:54 pm22 °FOvercast.7 mph62%30.57 "Hg10 mi
1:54 pm22 °FOvercast.6 mph60%30.57 "Hg10 mi
12:54 pm20 °FOvercast.6 mph65%30.61 "Hg10 mi
11:54 am19 °FOvercast.5 mph68%30.64 "Hg10 mi
10:54 am16 °FOvercast.3 mph74%30.68 "Hg10 mi
9:54 am14 °FOvercast.No wind80%30.71 "Hg10 mi
8:54 am12 °FBroken clouds.No wind77%30.70 "Hg10 mi
7:54 am9 °FScattered clouds.No wind76%30.69 "Hg10 mi
6:54 am5 °FClear.3 mph83%30.69 "Hg10 mi
5:54 am4 °FClear.No wind84%30.70 "Hg10 mi
4:54 am5 °FClear.No wind83%30.70 "Hg10 mi
3:54 am4 °FClear.3 mph84%30.71 "Hg10 mi
2:54 am5 °FClear.No wind83%30.72 "Hg10 mi
1:54 am7 °FClear.No wind79%30.72 "Hg10 mi
12:54 am8 °FClear.No wind79%30.73 "Hg10 mi
11:54 pm
Thu, Dec 8
8 °FClear.No wind79%30.73 "Hg10 mi
10:54 pm11 °FClear.No wind77%30.72 "Hg10 mi
9:54 pm8 °FClear.5 mph79%30.72 "Hg10 mi
8:54 pm12 °FClear.3 mph73%30.73 "Hg10 mi
7:54 pm18 °FClear.5 mph59%30.73 "Hg10 mi
6:54 pm13 °FClear.No wind74%30.72 "Hg10 mi
5:54 pm21 °FClear.6 mph55%30.71 "Hg10 mi
Weather by CustomWeather, © 2016

See weather overviewHow to use our weather pages